This is the latest recevied weather packets stored in our database for station/object G4GJR. If no packets are shown the sender has not sent any weather packets the latest 10 day(s).
| Time | Temp. | Humidity | Pressure | Rain* | Wind** | Luminosity | Snow |
|---|---|---|---|---|---|---|---|
| 1777624204 | 17.78° C | 44% | 1021 hPa | 0 mm | - | - | - |
| 1777622403 | 16.11° C | 47% | 1020.9 hPa | 0 mm | - | - | - |
| 1777618804 | 13.33° C | 57% | 1020.8 hPa | 0 mm | - | - | - |
| 1777615204 | 7.22° C | 79% | 1020.8 hPa | 0 mm | - | - | - |
| 1777611604 | 5.56° C | 82% | 1020.6 hPa | 0 mm | - | - | - |
| 1777599004 | 7.22° C | 72% | 1021.3 hPa | 0 mm | - | - | - |
| 1777587304 | 10.56° C | 57% | 1021.8 hPa | 0 mm | - | - | - |
| 1777571105 | 19.44° C | 33% | 1021.3 hPa | 0 mm | - | - | - |
| 1777568403 | 20° C | 32% | 1021.4 hPa | 0 mm | - | - | - |
| 1777565704 | 21.11° C | 29% | 1021.2 hPa | 0 mm | - | - | - |
| 1777564804 | 21.11° C | 27% | 1021.2 hPa | 0 mm | - | - | - |
| 1777562104 | 21.11° C | 24% | 1021.4 hPa | 0 mm | - | - | - |
| 1777554004 | 21.11° C | 28% | 1022.1 hPa | 0 mm | - | - | - |
| 1777551304 | 21.11° C | 32% | 1022.5 hPa | 0 mm | - | - | - |
| 1777547704 | 19.44° C | 35% | 1022.9 hPa | 0 mm | - | - | - |
| 1777544104 | 18.33° C | 46% | 1023.3 hPa | 0 mm | - | - | - |
| 1777541404 | 16.67° C | 51% | 1023.7 hPa | 0 mm | - | - | - |
| 1777531504 | 8.89° C | 81% | 1024.6 hPa | 0 mm | - | - | - |
| 1777530604 | 7.78° C | 85% | 1024.5 hPa | 0 mm | - | - | - |
| 1777519804 | 5.56° C | 87% | 1024.4 hPa | 0 mm | - | - | - |
| 1777508104 | 7.22° C | 81% | 1025.5 hPa | 0 mm | - | - | - |
| 1777505404 | 7.22° C | 79% | 1025.7 hPa | 0 mm | - | - | - |
| 1777501805 | 8.33° C | 74% | 1025.8 hPa | 0 mm | - | - | - |
| 1777498204 | 9.44° C | 67% | 1025.7 hPa | 0 mm | - | - | - |
| 1777489204 | 13.33° C | 50% | 1024.5 hPa | 0 mm | - | - | - |
* Rain latest hour (hover to see other rain measurements)
** Current wind speed in m/s (hover to see current wind gust speed)